This is the latest recevied weather packets stored in our database for station/object KC8PTQ. If no packets are shown the sender has not sent any weather packets the latest 1 day(s).
| Time | Temp. | Humidity | Pressure | Rain* | Wind** | Luminosity | Snow |
|---|---|---|---|---|---|---|---|
| 1836274784 | 16.11° C | 86% | 1022 hPa | 0 mm | 0 m/s | 0 W/m² | - |
| 1836274482 | 16.11° C | 86% | 1021.9 hPa | 0 mm | 0 m/s | 0 W/m² | - |
| 1836274336 | 16.11° C | 87% | 1022 hPa | 0 mm | 0 m/s | 0 W/m² | - |
| 1836274180 | 16.67° C | 86% | 1021.8 hPa | 0 mm | 0 m/s | 0 W/m² | - |
| 1836273875 | 16.67° C | 86% | 1021.9 hPa | 0 mm | 0 m/s | 0 W/m² | - |
| 1778055317 | 7.22° C | 99% | 1009 hPa | 0 mm | 0.45 m/s, 355° | 0 W/m² | - |
| 1778055014 | 7.22° C | 99% | 1009.2 hPa | 0 mm | 0 m/s | 0 W/m² | - |
| 1778054711 | 7.22° C | 99% | 1009.3 hPa | 1.78 mm | 0 m/s | 0 W/m² | - |
| 1778054408 | 6.67° C | 99% | 1009.1 hPa | 3.05 mm | 0 m/s | 0 W/m² | - |
| 1778054106 | 6.67° C | 99% | 1009.1 hPa | 3.05 mm | 0 m/s | 0 W/m² | - |
| 1778053802 | 6.67° C | 99% | 1009.2 hPa | 3.56 mm | 0 m/s | 0 W/m² | - |
| 1778053500 | 6.67° C | 99% | 1009.4 hPa | 3.05 mm | 0 m/s | 0 W/m² | - |
| 1778053197 | 6.67° C | 99% | 1009 hPa | 4.32 mm | 0 m/s | 0 W/m² | - |
| 1778052895 | 6.67° C | 99% | 1009.4 hPa | 4.83 mm | 0.45 m/s, 319° | 0 W/m² | - |
| 1778052592 | 6.67° C | 99% | 1009.3 hPa | 3.05 mm | 0.89 m/s, 25° | 0 W/m² | - |
| 1778052289 | 6.67° C | 99% | 1009.2 hPa | 1.27 mm | 0.89 m/s, 327° | 0 W/m² | - |
| 1778051987 | 6.67° C | 99% | 1009 hPa | 3.05 mm | 0.45 m/s, 15° | 0 W/m² | - |
| 1778051684 | 6.67° C | 99% | 1009 hPa | 3.05 mm | 0 m/s | 0 W/m² | - |
| 1778051381 | 6.67° C | 99% | 1009 hPa | 3.05 mm | 0 m/s | 0 W/m² | - |
| 1778051078 | 7.22° C | 99% | 1009 hPa | 3.05 mm | 0.45 m/s, 335° | 0 W/m² | - |
| 1778050775 | 7.22° C | 99% | 1009 hPa | 3.05 mm | 0 m/s | 0 W/m² | - |
| 1778050473 | 7.22° C | 99% | 1008.8 hPa | 3.56 mm | 0 m/s | 0 W/m² | - |
| 1778050169 | 7.22° C | 99% | 1009 hPa | 4.83 mm | 0 m/s | 0 W/m² | - |
| 1778049866 | 7.22° C | 99% | 1008.8 hPa | 4.32 mm | 0 m/s | 0 W/m² | - |
| 1778049562 | 7.22° C | 99% | 1009 hPa | 4.83 mm | 0.45 m/s, 11° | 0 W/m² | - |
* Rain latest hour (hover to see other rain measurements)
** Current wind speed in m/s (hover to see current wind gust speed)